Kapal

Kazakhstan     45˚14′09″N   78˚52′10″E
temp.,
°C
wind,
m/s
gust,
m/s
humid.,
%
clouds,
%
prec.,
mm/h
press.,
hPa
HPBL,
m
2 december, wed
wed200:00−9˚sse1150100 0.0 103621
03:00−9˚ese1146100 0.0 103521
06:00−10˚ese113885 0.0 103621
09:00−8˚sse113293 0.0 103521
12:00−3˚ne006160 0.0 103423
15:00−4˚ne116325 0.0 103221
18:00−7˚ese114862 0.0 103221
21:00−6˚s0149100 0.0 103121
3 december, thu
thu300:00−4˚sse0048100 0.0 103021
03:00−3˚sse115699 0.0 102921
06:00−4˚s116299 0.0 102921
09:00−2˚sw1166100 0.0 102921
12:00+1˚ne0189100 0.0 102926
15:00ne1282100 0.0 102828
18:00+1˚s0177100 0.0 102722
21:00+1˚ssw1284100 0.1 102728
4 december, fri
fri400:00+1˚s2297100 0.9 102734
03:00+2˚sw1197100 0.4 102622
06:00+1˚wsw1199100 0.5 102624
09:00+1˚sw2299100 0.8 102760
12:00+1˚w23100100 0.9 1027132
15:00w22100100 0.2 1027168
18:00−1˚sw2298100 1.0 102858
21:00−2˚w2399100 1.3 1029138
5 december, sat
sat500:00−3˚wsw1198100 1.8 102924
03:00−4˚wsw1297100 0.6 103024
06:00−5˚wsw1196100 1.0 103021
09:00−5˚ese1195100 0.2 103121
12:00−4˚nne1197100 0.2 1030127
15:00−3˚n2297100 0.0 1030232
18:00−5˚n1199100 0.2 103069
21:00−5˚ne1197100 0.2 103224
6 december, sun
sun600:00−6˚ne1297100 0.6 103232
03:00−6˚e239199 0.3 103241
06:00−8˚ese238270 0.3 103221
09:00−7˚se017985 0.0 103321
12:00−4˚nne118490 0.0 1033101
15:00−4˚nnw1194100 0.0 103370
18:00−8˚ssw119051 0.0 103321
21:00−8˚se118123 0.0 103321